Flag for U.S.A. Weather past 2 weeks in Babylon, New York, U.S.A.

Now
54 °F

Clear.


Feels Like: 52 °F
Forecast: 53 / 72 °F
Wind: 7 mph from Southwest

Location: Republic Airport

Current Time: May 24, 2015 at 1:32:06 AM

Latest Report: May 24, 2015 at 12:53 AM


Visibility: 10 mi

Pressure: 30.36 "Hg

Humidity: 86%

Dew point: 50 °F

Location of BabylonLocation

Historic Weather in Babylon — Graph

°F

Babylon temperature yesterday

Maximum temperature yesterday: 66 °F (at 3:53 PM)
Minimum temperature yesterday: 50 °F (at 5:53 AM)
Average temperature yesterday: 56 °F

Past Weeks' High & Low Weather Summary

 TemperatureHumidityPressure
High85 °F (May 12, 4:53 PM)100% (May 9, 6:53 AM)30.41 "Hg (May 9, 6:53 AM)
Low50 °F (May 14, 5:53 AM)23% (May 23, 3:53 PM)29.75 "Hg (May 12, 5:53 PM)
Average63 °F68%30.10 "Hg
* Reported May 8 11:53 PM — May 23 11:53 PM, Babylon, Weather by CustomWeather, © 2015

Note: Actual official high and low records may vary slightly from our data, if they occured in-between our weather recording intervals... More about our weather records

Advertising

Babylon weather history for previous 24 hours

 ConditionsComfort  
Time TempWeatherWind HumidityBarometerVisibility
11:53 PM
Sat, May 23
54 °FClear.7 mph80%30.37 "Hg10 mi
10:53 PM55 °FClear.8 mph74%30.37 "Hg10 mi
9:53 PM54 °FClear.7 mph72%30.36 "Hg10 mi
8:53 PM54 °FSunny.10 mph67%30.35 "Hg10 mi
7:53 PM55 °FSunny.14 mph62%30.36 "Hg10 mi
6:53 PM59 °FSunny.12 mph49%30.35 "Hg10 mi
5:53 PM62 °FSunny.15 mph39%30.35 "Hg10 mi
4:53 PM65 °FSunny.10 mph28%30.34 "Hg10 mi
3:53 PM66 °FSunny.8 mph23%30.36 "Hg10 mi
2:53 PM64 °FSunny.7 mph24%30.37 "Hg10 mi
1:53 PM62 °FSunny.8 mph26%30.39 "Hg10 mi
12:53 PM60 °FSunny.10 mph30%30.40 "Hg10 mi
11:53 AM58 °FSunny.8 mph30%30.41 "Hg10 mi
10:53 AM57 °FSunny.10 mph34%30.41 "Hg10 mi
9:53 AM54 °FSunny.9 mph41%30.40 "Hg10 mi
8:53 AM52 °FSunny.10 mph40%30.39 "Hg10 mi
7:53 AM51 °FSunny.10 mph41%30.37 "Hg10 mi
6:53 AM50 °FSunny.12 mph44%30.34 "Hg10 mi
5:53 AM50 °FClear.12 mph39%30.31 "Hg10 mi
4:53 AM51 °FClear.8 mph36%30.28 "Hg10 mi
3:53 AM52 °FClear.8 mph35%30.25 "Hg10 mi
2:53 AM54 °FClear.10 mph40%30.21 "Hg10 mi
1:53 AM57 °FClear.13 mph39%30.18 "Hg10 mi
Weather by CustomWeather, © 2015

See weather overviewHow to use our weather pages